Regional Weather Roundup
Issued by NWS

Home | Current Version | Previous Version | Text Only | Print | Product List | Glossary On
Versions: 1 2 3 4 5 6 7 8 9 10 11 12 13 14 15 16 17 18 19 20 21 22 23 24 25 26 27 28 29 30 31 32 33 34 35 36 37 38 39 40 41 42 43 44 45 46 47 48 49 50
000
ASUS44 KJAN 030410
RWRMS

MISSISSIPPI HOURLY WEATHER ROUNDUP
NATIONAL WEATHER SERVICE JACKSON MS
1000 PM CST MON MAR 02 2015

NOTE: "FAIR: INDICATES FEW OR NO CLOUDS BELOW 12,000 FEET WITH NO
SIGNIFICANT WEATHER AND/OR OBSTRUCTIONS TO VISIBILITY.

MSZ001>002-007>008-010>013-018>021-025>028-034>036-030500-
NORTHWEST MISSISSIPPI

CITY           SKY/WX    TMP DP  RH WIND       PRES   REMARKS
CLARKSDALE     CLOUDY    39  39 100 CALM      30.27F
CLEVELAND      FOG       40  40 100 N5        30.26F VSB 3/4
GREENWOOD      CLOUDY    45  43  93 E6        30.24F FOG
GREENVILLE     FOG       41  39  93 N6        30.25F VSB 1/2
OLIVE BRANCH   CLOUDY    39  39 100 CALM      30.25S
OXFORD         CLOUDY    39  39 100 SE3       30.26S FOG
TUNICA         CLOUDY    39  37  93 CALM      30.26F FOG
$$

MSZ003>006-009-014>017-022>024-029>033-037>039-030500-
NORTHEAST MISSISSIPPI

CITY           SKY/WX    TMP DP  RH WIND       PRES   REMARKS
COLUMBUS AFB   CLOUDY    46  46  99 SE2       30.24F
CORINTH        CLOUDY    45  41  87 SE5       30.23F
GOLDN TRIANGLE CLOUDY    46  43  87 E3        30.24F
STARKVILLE     CLOUDY    45  45 100 CALM      30.25F FOG
TUPELO         CLOUDY    44  42  93 CALM      30.25F FOG
$$

MSZ040-058-030500-
CENTRAL MISSISSIPPI

CITY           SKY/WX    TMP DP  RH WIND       PRES   REMARKS
JACKSON INTL   FOG       53  52  96 CALM      30.23S VSB 1/2
JACKSON HAWKNS FOG       51  50  96 CALM      30.23S VSB 1/2
MERIDIAN KEY   CLOUDY    52  51  97 NE5       30.24S FOG
MERIDIAN NAS   CLOUDY    51  50  96 CALM      30.25F
VICKSBURG      CLOUDY    44  43  96 CALM      30.25S FOG
$$

MSZ059>079-030500-
SOUTH MISSISSIPPI

CITY           SKY/WX    TMP DP  RH WIND       PRES   REMARKS
BROOKHAVEN     CLOUDY    54  54 100 CALM      30.24R
HATTIESBURG    FOG       61  61 100 E3        30.23S VSB 3/4
MCCOMB         FOG       62  61  96 CALM      30.22R VSB 3/4
NATCHEZ        CLOUDY    45  43  93 N3        30.24S VSB 1
PINE BELT      CLOUDY    61  57  88 CALM      30.23S VSB 1/2
$$

MSZ080>082-030500-
COASTAL MISSISSIPPI

CITY           SKY/WX    TMP DP  RH WIND       PRES   REMARKS
BILOXI         FOG       64  64 100 E3        30.22R VSB 1/2
PASCAGOULA     FOG       64  63  96 CALM      30.23S VSB 1/4
GULFPORT       FOG       64  63  96 NE3       30.21S VSB 1/4
$$



USA.gov is the U.S. government's official web portal to all federal, state and local government web resources and services.